Regional Weather Roundup
Issued by NWS Charleston, WV

Home | Current Version | Previous Version | Graphics & Text | Print | Product List | Glossary On
Versions: 1 2 3 4 5 6 7 8 9 10 11 12 13 14 15 16 17 18 19 20 21 22 23 24 25 26 27 28 29 30 31 32 33 34 35 36 37 38 39 40 41 42 43 44 45 46 47 48 49 50
376
ASUS41 KRLX 221810
RWRRLX
West Virginia Regional Weather Roundup
National Weather Service Charleston WV
200 PM EDT SUN OCT 22 2017

Note: "fair" indicates few or no clouds below 12,000 feet with no
significant weather and/or obstructions to visibility.

WVZ003-221900-
Northern Panhandle of West Virginia

CITY           SKY/WX    TMP DP  RH WIND       PRES   REMARKS
WHEELING       SUNNY     74  50  42 SW6       30.24F
$$

WVZ009-221900-
Northwest West Virginia

CITY           SKY/WX    TMP DP  RH WIND       PRES   REMARKS
PARKERSBURG    MOSUNNY   75  50  41 S5        30.25F
$$

WVZ006-221900-
Western West Virginia

CITY           SKY/WX    TMP DP  RH WIND       PRES   REMARKS
HUNTINGTON     SUNNY     76  49  38 VRB5      30.21F
$$

WVZ015-221900-
West Central West Virginia

CITY           SKY/WX    TMP DP  RH WIND       PRES   REMARKS
CHARLESTON     MOSUNNY   78  44  29 CALM      30.22F
$$

WVZ022-031-221900-
North Central West Virginia

CITY           SKY/WX    TMP DP  RH WIND       PRES   REMARKS
CLARKSBURG     SUNNY     77  45  32 VRB6      30.25F
MORGANTOWN     SUNNY     77  45  32 SW3       30.25F
$$

WVZ025-035-042-045-221900-
Southern West Virginia

CITY           SKY/WX    TMP DP  RH WIND       PRES   REMARKS
BECKLEY        SUNNY     70  48  45 SE7       30.29F
LOGAN            N/A     75  46  35 VRB5      30.24F
BLUEFIELD      SUNNY     68  44  42 VRB6      30.32F
LEWISBURG      SUNNY     72  48  41 S3        30.31F
$$

WVZ047-221900-
Northern Mountains of West Virginia

CITY           SKY/WX    TMP DP  RH WIND       PRES   REMARKS
ELKINS         SUNNY     76  43  30 VRB7      30.28F
$$

WVZ052-221900-
Eastern Panhandle of West Virginia

CITY           SKY/WX    TMP DP  RH WIND       PRES   REMARKS
MARTINSBURG    SUNNY     75  54  47 SE13      30.30F
PETERSBURG     SUNNY     76  53  44 E6        30.27F
$$




USA.gov is the U.S. government's official web portal to all federal, state and local government web resources and services.